Location: Dumpton Point
(51.3500°N, 1.4433°E)
Time: 08:37:05
(UTC+00:00)

Cosmos 2344 - Pass Details

Date: 09 April 2020
Orbit: 1251 x 2991 km, 63.3° (Epoch: 24 May)

Event Time Altitude Azimuth Distance (km) Brightness Sun altitude
Rises 22:22:19 0° 315° (NW) 4,570 7.6 -27.3°
Reaches altitude 10° 22:24:56 10° 314° (NW) 3,724 6.9 -27.5°
Maximum altitude 22:34:16 77° 231° (SW) 1,943 4.3 -28.1°
Enters shadow 22:38:41 46° 157° (SSE) 2,633 4.7 -28.4°
